CAPE
814 1059 981 933 883 688 458 608 924 1042 807 593 266 104 102 30 0 0 0 0 0 300 531 898 875 551 262 40 1 91 211 90 55
1078 988 761 766 878 769 696 927 1027 822 624 323 291 198 64 33 0 0 0 0 0 1 58 238 763 437 232 37 2 0 72 39 41
727 775 818 703 717 780 717 598 816 713 660 320 266 156 32 23 5 0 0 48 8 0 0 0 389 435 167 59 5 34 41 56 57
447 688 560 791 745 818 646 624 685 586 410 311 254 85 44 19 16 0 3 94 57 11 0 0 21 253 124 96 40 18 62 84 55
3 6 64 505 689 848 841 797 736 578 364 293 274 106 49 7 2 0 15 332 380 92 15 5 0 254 177 137 65 22 62 80 53
0 5 5 10 131 546 561 906 698 371 179 127 121 90 46 18 14 0 134 607 584 437 314 49 104 388 256 160 109 53 68 90 68
0 1 3 7 3 22 332 522 627 308 37 0 58 48 36 27 17 1 181 535 616 458 436 409 406 383 174 213 140 72 71 79 74
0 0 8 5 1 0 2 25 141 189 34 6 16 15 0 1 0 0 147 789 281 475 346 322 250 271 161 109 122 115 57 51 64
0 0 0 0 1 2 2 3 4 36 75 9 2 28 28 16 0 0 25 534 717 446 543 226 169 137 140 164 130 216 110 92 71
0 0 0 0 0 0 3 4 4 4 8 19 0 1 30 37 0 6 18 85 649 881 285 328 198 123 82 89 94 197 124 134 97
0 0 0 0 0 0 1 4 4 3 10 0 0 0 0 0 0 11 1 20 180 735 421 261 278 184 101 64 42 66 141 91 108
0 0 0 0 0 0 0 0 0 2 3 5 0 0 0 0 0 16 7 1 12 143 498 345 384 228 120 82 54 34 126 113 94
0 0 0 0 0 0 0 0 0 0 1 1 4 7 0 0 0 0 13 6 0 0 197 378 580 410 152 113 74 59 101 122 104
0 0 0 0 0 0 0 0 0 0 0 5 2 4 0 0 0 0 0 35 8 0 0 75 117 231 311 205 119 70 127 145 135
0 0 0 0 0 0 0 0 0 0 5 0 0 5 0 0 0 0 0 1 33 6 0 0 8 39 140 204 231 141 166 161 159
0 0 0 0 0 0 0 0 0 0 0 0 0 0 2 0 0 0 0 0 6 8 7 0 0 0 50 139 243 269 190 141 115
0 0 0 0 0 0 0 0 0 0 0 7 1 4 1 4 1 0 0 0 0 3 12 4 0 0 6 44 81 121 227 157 141
0 0 0 0 0 0 0 0 0 0 0 0 0 7 4 3 5 0 0 0 0 0 21 6 4 0 0 0 21 40 96 234 176
0 0 0 0 0 0 0 0 0 0 0 0 0 0 14 7 3 0 2 0 0 0 0 12 7 0 0 0 0 0 20 181 291
0 0 0 0 0 0 0 0 0 0 0 1 3 1 4 0 14 7 2 0 1 0 0 3 14 0 0 0 0 0 0 142 370
CIN
-7 -3 -4 -4 -3 -2 -4 -2 -1 -1 -6 -20 -43 -129 -161 -68 -0 -0 -0 -0 -0 -4 -0 -0 -0 -0 -0 -34 -0 -40 -31 -96 -62
-5 -7 -6 -6 -3 -3 -2 -1 -0 -3 -9 -20 -56 -105 -97 -73 -0 -0 -0 -0 -0 -0 -60 -8 -0 -0 -12 -61 -0 -0 -78 -0 -1
-7 -8 -9 -8 -5 -3 -3 -6 -4 -5 -9 -27 -75 -139 -76 -83 -69 -0 -0 -119 -47 -0 -0 -0 -4 -2 -43 -88 -0 -43 -51 -0 -0
-6 -4 -9 -5 -5 -3 -5 -6 -4 -9 -11 -31 -84 -172 -94 -115 -77 -0 -142 -160 -119 -34 -0 -0 -44 -27 -85 -124 -0 -1 -135 -84 -0
-0 -0 -90 -6 -8 -3 -2 -3 -3 -6 -18 -34 -65 -152 -80 -124 -29 -0 -115 -57 -14 -96 -26 -38 -0 -23 -62 -111 -0 -2 -0 -6 -3
-0 -0 -0 -72 -28 -4 -5 -1 -3 -15 -45 -71 -83 -100 -112 -124 -100 -12 -130 -25 -9 -6 -17 -37 -90 -11 -32 -98 -163 -1 -0 -45 -0
-0 -0 -0 -0 -0 -35 -4 -6 -5 -15 -76 -0 -68 -109 -131 -137 -109 -14 -106 -38 -11 -13 -7 -15 -19 -28 -58 -65 -127 -0 -1 -8 -4
-0 -0 -0 -0 -0 -0 -0 -79 -18 -24 -72 -122 -108 -93 -0 -22 -0 -0 -103 -36 -29 -6 -14 -23 -34 -31 -69 -114 -105 -123 -6 -7 -7
-0 -0 -0 -0 -0 -0 -0 -0 -0 -37 -26 -83 -18 -91 -113 -121 -0 -0 -99 -65 -26 -10 -0 -59 -93 -116 -102 -78 -115 -64 -131 -13 -4
-0 -0 -0 -0 -0 -0 -0 -0 -0 -0 -83 -58 -24 -24 -81 -90 -0 -133 -142 -149 -46 -9 -38 -22 -82 -150 -208 -189 -194 -83 -147 -160 -6
-0 -0 -0 -0 -0 -0 -0 -0 -0 -0 -0 -30 -49 -0 -0 -0 -53 -93 -69 -132 -130 -39 -15 -41 -41 -113 -182 -0 -0 -54 -135 -4 -4
-0 -0 -0 -0 -0 -0 -0 -0 -0 -0 -0 -0 -1 -0 -0 -0 -0 -122 -136 -149 -113 -78 -20 -15 -12 -60 -146 -0 -0 -0 -175 -151 -6
-0 -0 -0 -0 -0 -0 -0 -0 -0 -0 -0 -0 -0 -23 -0 -0 -0 -0 -123 -137 -0 -0 -62 -19 -1 -12 -106 -0 -0 -0 -0 -173 -3
-0 -0 -0 -0 -0 -0 -0 -0 -0 -0 -0 -0 -0 -0 -0 -0 -0 -0 -0 -96 -96 -0 -0 -72 -52 -44 -14 -89 -0 -0 -0 -67 -0
-0 -0 -0 -0 -0 -0 -0 -0 -0 -0 -0 -0 -0 -0 -0 -0 -0 -0 -0 -30 -85 -100 -0 -0 -20 -42 -24 -51 -36 -0 -0 -0 -0
-0 -0 -0 -0 -0 -0 -0 -0 -0 -0 -0 -0 -0 -0 -0 -0 -0 -0 -0 -0 -69 -77 -130 -0 -0 -0 -44 -27 -17 -12 -71 -0 -0
-0 -0 -0 -0 -0 -0 -0 -0 -0 -0 -0 -0 -0 -0 -0 -0 -0 -0 -0 -0 -0 -40 -82 -98 -0 -0 -62 -36 -20 -13 -36 -0 -0
-0 -0 -0 -0 -0 -0 -0 -0 -0 -0 -0 -0 -0 -0 -0 -0 -1 -0 -0 -0 -0 -0 -50 -94 -102 -0 -0 -0 -69 -41 -12 -36 -0
-0 -0 -0 -0 -0 -0 -0 -0 -0 -0 -0 -0 -0 -0 -0 -0 -0 -0 -0 -0 -0 -0 -0 -53 -63 -0 -0 -0 -0 -0 -71 -17 -22
-0 -0 -0 -0 -0 -0 -0 -0 -0 -0 -0 -1 -1 -1 -2 -0 -0 -0 -0 -0 -0 -0 -0 -45 -28 -13 -0 -0 -0 -0 -0 -23 -5
Wind_Speed
4 5 6 6 5 4 4 5 4 5 5 5 3 1 5 7 2 7 6 5 7 9 9 9 13 12 16 15 15 15 14 15 17
7 5 4 4 3 3 3 3 4 1 3 5 5 2 6 5 1 6 5 4 6 6 7 7 11 12 14 15 14 14 14 14 16
6 4 3 2 2 2 1 1 2 1 5 5 4 1 4 5 3 6 5 6 6 6 6 6 5 13 13 14 14 14 12 14 16
22 11 5 1 0 0 1 0 0 3 4 5 3 3 3 3 2 5 4 7 6 6 8 7 6 9 12 13 14 13 12 15 15
24 23 20 13 5 3 3 2 1 4 4 2 3 6 6 5 3 3 4 10 8 7 7 8 10 10 12 13 14 13 13 12 13
17 20 24 22 21 12 5 4 4 4 5 6 6 6 3 4 2 2 10 11 9 9 9 9 11 14 14 14 14 14 13 13 13
14 18 24 24 26 19 13 9 8 5 3 3 6 3 5 4 3 4 12 13 12 12 10 11 11 14 17 15 15 15 13 14 12
9 8 9 10 18 10 14 9 4 4 4 4 4 5 5 4 3 5 14 15 15 14 12 11 12 12 14 16 16 16 15 14 12
10 8 10 9 9 12 10 8 12 8 6 6 6 7 6 5 3 6 15 16 16 15 17 16 15 14 13 14 15 14 14 16 14
9 9 9 9 10 10 10 10 10 12 9 7 6 6 8 9 3 5 15 15 15 15 15 19 18 18 17 16 15 15 16 16 17
9 9 9 10 10 9 9 10 10 9 12 9 9 7 6 7 4 5 7 15 17 17 16 19 21 20 19 17 16 15 16 16 17
9 8 9 10 9 11 10 11 10 9 10 13 10 10 9 7 6 5 5 7 12 12 15 17 20 20 20 18 18 17 16 16 16
10 7 9 9 8 9 10 10 11 10 10 10 11 9 11 12 7 5 6 6 7 11 14 13 19 20 20 20 20 19 17 17 18
9 8 8 10 8 8 9 9 9 10 10 11 11 11 8 9 8 9 7 9 9 7 12 15 15 17 20 21 21 21 20 17 18
9 9 10 9 8 9 9 11 10 10 10 13 12 11 8 8 8 12 6 8 10 10 11 10 10 15 19 22 22 23 22 19 20
9 8 9 10 9 9 11 10 12 8 11 8 10 8 10 11 10 11 9 8 9 10 10 7 8 9 19 22 22 23 23 23 22
12 11 9 10 9 10 10 11 9 5 10 9 8 6 3 3 7 5 6 12 9 9 12 12 12 11 10 14 22 23 24 25 25
10 9 8 10 8 8 9 8 11 9 7 8 5 6 5 11 4 9 10 14 11 10 10 12 13 13 11 14 17 21 22 25 28
9 9 9 8 7 9 8 9 8 8 9 6 5 8 8 5 10 8 11 12 13 12 10 11 13 13 11 16 18 21 23 25 28
9 9 9 9 7 8 10 10 9 6 7 7 7 7 6 10 9 11 8 13 9 10 11 10 10 13 12 11 15 23 27 28 29
Wind_Direction
22 60 69 89 93 67 63 55 55 132 152 159 198 229 16 6 56 86 92 83 88 90 87 100 121 121 121 115 115 110 105 109 104
35 54 64 72 73 73 59 69 105 146 235 209 196 310 9 354 69 106 106 102 118 117 105 81 123 134 125 121 120 117 113 114 112
14 42 67 72 62 49 103 72 103 226 248 249 206 106 337 357 69 135 124 130 136 140 134 112 114 138 132 130 127 121 121 128 123
11 352 347 315 197 313 184 353 243 289 293 293 223 261 270 328 336 140 136 140 153 154 155 153 135 150 144 137 137 127 114 135 128
10 9 359 333 290 226 232 237 272 307 309 298 238 281 304 299 329 167 159 156 178 167 171 174 175 157 154 146 143 134 127 135 135
5 7 4 8 355 320 282 251 246 258 292 279 238 228 251 269 226 247 172 162 168 182 194 184 175 161 162 154 151 144 149 142 143
8 8 6 6 6 353 328 288 249 249 265 274 266 227 235 234 230 201 201 173 180 183 182 184 188 170 164 156 156 158 157 145 152
14 6 2 359 0 359 347 333 300 236 235 246 244 250 245 246 198 192 208 182 193 196 192 184 156 168 165 167 171 168 166 160 165
12 8 6 6 357 350 350 338 334 297 241 236 232 235 236 244 204 201 213 187 198 199 194 196 180 177 183 178 181 174 171 162 166
7 7 8 3 356 352 345 342 333 324 294 258 236 234 238 246 207 207 206 196 197 205 197 200 197 189 190 190 186 182 172 172 169
9 6 8 3 356 349 343 343 336 324 315 287 256 230 237 250 221 211 210 213 197 196 204 201 209 198 195 195 192 191 184 186 172
8 4 6 1 353 351 349 347 344 337 330 322 277 273 250 239 236 199 200 213 216 202 207 206 209 205 201 203 200 200 198 185 177
8 3 4 355 352 356 357 353 342 342 326 321 318 277 272 264 253 213 197 205 206 210 207 211 206 208 207 206 206 205 203 188 185
5 7 356 355 354 359 354 351 346 339 326 322 311 288 256 266 264 251 202 207 211 198 208 203 210 211 210 209 208 206 203 200 193
360 4 359 356 357 356 353 351 348 333 333 315 293 281 242 240 255 257 241 218 210 202 201 202 210 208 214 215 216 209 200 203 198
4 2 356 356 359 353 353 348 349 347 350 328 324 290 244 227 230 239 242 237 213 210 205 191 198 205 209 213 217 215 206 201 206
3 354 353 355 350 353 354 350 351 336 351 350 292 321 292 305 255 249 242 251 236 217 209 200 195 196 200 212 217 216 210 203 204
359 352 352 349 350 347 346 343 359 340 342 352 295 322 326 343 294 242 245 243 236 231 217 206 203 200 197 202 207 208 210 208 207
351 349 351 342 346 338 339 347 337 335 327 335 338 330 314 323 319 320 314 251 243 234 227 218 209 206 203 200 200 201 204 206 211
340 343 338 340 333 335 334 330 329 320 309 313 312 302 304 270 258 283 324 332 306 250 242 231 222 212 208 203 202 198 204 207 210